Dumas, TX

11:14 AM CDT on July 27, 2017 (GMT -0500)
Moore County

Weather History for KDUX - October, 2013

Change the Weather History Date:

Monday, October 21, 2013

  Actual Average (KDHT) Record (KDHT)
Temperature  
Mean Temperature 51 °F -  
Max Temperature 61 °F 67 °F 87 °F (2003)
Min Temperature 40 °F 38 °F 27 °F (1990)
Degree Days  
Heating Degree Days 14    
Growing Degree Days 1 (Base 50)    
Moisture  
Dew Point 32 °F    
Average Humidity 54    
Maximum Humidity 80    
Minimum Humidity 29    
Precipitation  
Precipitation 0.00 in - - ()
Sea Level Pressure  
Sea Level Pressure 30.14 in    
Wind  
Wind Speed 11 mph (North)    
Max Wind Speed 18 mph    
Max Gust Speed 25 mph    
Visibility 10 miles    
Events      
Averages and records for this station are not official NWS values.
T = Trace of Precipitation, MM = Missing Value Source: NWS Daily Summary

Daily Weather History Graph

Daily Weather History Graph

Search for Another Location

Airport or City:

Trip Planner

Search our weather history database for the weather conditions in past years. The results will help you decide how hot, cold, wet, or windy it might be!

Date:

Astronomy

Oct. 21, 2013 Rise Set
Actual Time 8:00 AM CDT 7:04 PM CDT
Civil Twilight 7:34 AM CDT 7:30 PM CDT
Nautical Twilight 7:04 AM CDT 8:00 PM CDT
Astronomical Twilight 6:34 AM CDT 8:29 PM CDT
Moon 9:03 PM CDT (10/21) 10:32 AM CDT (10/21)
Length of Visible Light 11h 56m
Length of Day
11h 04m
Waning Gibbous, 92% of the Moon is Illuminated
Oct 21
Waning Gibbous
Oct 26
Last Quarter
Nov 3
New
Nov 9
First Quarter
Nov 17
Full

Hourly Weather History & Observations

Time (CDT) Temp. Windchill Dew Point Humidity Pressure Visibility Wind Dir Wind Speed Gust Speed Precip Events Conditions
12:15 AM 46.4 °F 40.7 °F 36.1 °F 67% 30.03 in 10.0 mi North 12.7 mph - N/A   Clear
12:35 AM 46.0 °F 40.6 °F 35.8 °F 67% 30.04 in 10.0 mi North 11.5 mph - N/A   Clear
12:55 AM 46.4 °F 40.7 °F 35.8 °F 67% 30.05 in 10.0 mi North 12.7 mph - N/A   Clear
1:15 AM 46.0 °F 40.2 °F 35.6 °F 67% 30.05 in 10.0 mi North 12.7 mph - N/A   Clear
1:35 AM 45.7 °F 40.2 °F 35.2 °F 67% 30.06 in 10.0 mi North 11.5 mph - N/A   Clear
1:55 AM 45.5 °F 39.6 °F 35.2 °F 67% 30.06 in 10.0 mi North 12.7 mph - N/A   Clear
2:15 AM 45.5 °F 39.6 °F 35.1 °F 67% 30.07 in 10.0 mi North 12.7 mph - N/A   Clear
2:35 AM 45.7 °F 39.8 °F 34.7 °F 65% 30.07 in 10.0 mi North 12.7 mph - N/A   Clear
2:55 AM 45.7 °F 39.8 °F 34.0 °F 64% 30.07 in 10.0 mi North 12.7 mph - N/A   Clear
3:15 AM 45.9 °F 39.7 °F 33.8 °F 63% 30.08 in 10.0 mi North 13.8 mph 18.4 mph N/A   Clear
3:35 AM 46.0 °F 39.6 °F 33.8 °F 62% 30.09 in 10.0 mi North 15.0 mph - N/A   Clear
3:55 AM 45.1 °F 39.5 °F 34.3 °F 66% 30.10 in 10.0 mi North 11.5 mph - N/A   Clear
4:15 AM 44.1 °F 38.6 °F 34.7 °F 70% 30.10 in 10.0 mi North 10.4 mph - N/A   Clear
4:35 AM 44.1 °F 37.7 °F 35.2 °F 71% 30.10 in 10.0 mi North 12.7 mph 17.3 mph N/A   Clear
4:55 AM 44.1 °F 37.4 °F 35.1 °F 71% 30.11 in 10.0 mi North 13.8 mph - N/A   Clear
5:15 AM 43.7 °F 37.3 °F 35.4 °F 73% 30.11 in 10.0 mi North 12.7 mph - N/A   Clear
5:35 AM 42.8 °F 36.2 °F 35.2 °F 75% 30.11 in 10.0 mi North 12.7 mph - N/A   Clear
5:55 AM 42.4 °F 36.1 °F 35.2 °F 76% 30.11 in 10.0 mi NNW 11.5 mph - N/A   Clear
6:15 AM 41.5 °F 35.4 °F 34.9 °F 77% 30.12 in 10.0 mi NNW 10.4 mph - N/A   Clear
6:35 AM 41.0 °F 35.2 °F 34.7 °F 78% 30.13 in 10.0 mi NNW 9.2 mph - N/A   Clear
6:55 AM 41.4 °F 35.2 °F 34.9 °F 78% 30.14 in 10.0 mi NNW 10.4 mph - N/A   Clear
7:15 AM 41.9 °F 37.5 °F 35.1 °F 77% 30.15 in 10.0 mi NNW 6.9 mph - N/A   Clear
7:35 AM 41.4 °F 37.6 °F 35.6 °F 80% 30.15 in 10.0 mi North 5.8 mph - N/A   Clear
7:55 AM 43.9 °F 37.9 °F 36.9 °F 76% 30.15 in 10.0 mi North 11.5 mph - N/A   Clear
8:15 AM 44.2 °F 38.4 °F 36.7 °F 75% 30.15 in 10.0 mi North 11.5 mph 17.3 mph N/A   Clear
8:35 AM 44.6 °F 38.4 °F 36.5 °F 73% 30.15 in 10.0 mi North 12.7 mph - N/A   Clear
8:55 AM 44.6 °F 37.8 °F 37.2 °F 75% 30.16 in 10.0 mi North 15.0 mph 19.6 mph N/A   Scattered Clouds
9:15 AM 45.0 °F 37.4 °F 36.7 °F 73% 30.17 in 10.0 mi North 18.4 mph 23.0 mph N/A   Clear
9:35 AM 45.1 °F 37.6 °F 36.3 °F 71% 30.17 in 10.0 mi North 18.4 mph 23.0 mph N/A   Clear
9:55 AM 45.3 °F 38.1 °F 35.8 °F 69% 30.18 in 10.0 mi North 17.3 mph 25.3 mph N/A   Scattered Clouds
10:15 AM 46.4 °F 40.4 °F 35.6 °F 66% 30.19 in 10.0 mi North 13.8 mph 23.0 mph N/A   Clear
10:35 AM 46.6 °F - 35.4 °F 65% 30.20 in 10.0 mi North 12.7 mph 20.7 mph N/A   Clear
10:55 AM 50.2 °F - 35.1 °F 56% 30.19 in 10.0 mi North 13.8 mph - N/A   Clear
11:15 AM 50.2 °F - 34.9 °F 56% 30.20 in 10.0 mi NNE 13.8 mph 19.6 mph N/A   Scattered Clouds
11:35 AM 50.5 °F - 34.7 °F 55% 30.20 in 10.0 mi NNE 13.8 mph 18.4 mph N/A   Clear
11:55 AM 52.0 °F - 34.9 °F 52% 30.20 in 10.0 mi NNE 12.7 mph 18.4 mph N/A   Clear
12:15 PM 53.4 °F - 35.1 °F 50% 30.21 in 10.0 mi NNE 9.2 mph - N/A   Clear
12:35 PM 54.1 °F - 35.1 °F 49% 30.20 in 10.0 mi NE 10.4 mph - N/A   Clear
12:55 PM 55.4 °F - 34.7 °F 46% 30.20 in 10.0 mi NNE 8.1 mph - N/A   Clear
1:15 PM 55.8 °F - 34.2 °F 44% 30.20 in 10.0 mi NNE 9.2 mph - N/A   Clear
1:35 PM 56.5 °F - 33.1 °F 41% 30.19 in 10.0 mi North 6.9 mph - N/A   Clear
1:55 PM 57.0 °F - 32.9 °F 40% 30.18 in 10.0 mi North 6.9 mph - N/A   Clear
2:15 PM 57.9 °F - 32.2 °F 38% 30.17 in 10.0 mi NNE 5.8 mph - N/A   Clear
2:35 PM 58.8 °F - 30.9 °F 35% 30.16 in 10.0 mi North 12.7 mph - N/A   Clear
2:55 PM 58.8 °F - 28.9 °F 32% 30.15 in 10.0 mi NNE 8.1 mph - N/A   Clear
3:15 PM 60.1 °F - 29.5 °F 31% 30.15 in 10.0 mi NNW 6.9 mph 16.1 mph N/A   Clear
3:35 PM 59.7 °F - 28.2 °F 30% 30.15 in 10.0 mi NNE 8.1 mph 16.1 mph N/A   Clear
3:55 PM 61.2 °F - 28.9 °F 30% 30.15 in 10.0 mi NNW 11.5 mph - N/A   Clear
4:15 PM 60.1 °F - 29.5 °F 31% 30.14 in 10.0 mi NE 8.1 mph - N/A   Clear
4:35 PM 60.1 °F - 29.3 °F 31% 30.14 in 10.0 mi NNE 4.6 mph - N/A   Clear
4:55 PM 60.4 °F - 28.9 °F 30% 30.14 in 10.0 mi Calm Calm - N/A   Clear
5:15 PM 60.4 °F - 27.9 °F 29% 30.14 in 10.0 mi NNW 8.1 mph - N/A   Clear
5:35 PM 60.4 °F - 27.5 °F 29% 30.14 in 10.0 mi NW 6.9 mph - N/A   Clear
5:55 PM 60.1 °F - 27.5 °F 29% 30.14 in 10.0 mi NW 6.9 mph - N/A   Clear
6:15 PM 59.4 °F - 27.1 °F 29% 30.14 in 10.0 mi Calm Calm - N/A   Clear
6:35 PM 58.3 °F - 27.3 °F 31% 30.15 in 10.0 mi NW 4.6 mph - N/A   Clear
6:55 PM 56.1 °F - 28.4 °F 35% 30.15 in 10.0 mi NNE 3.5 mph - N/A   Clear
7:15 PM 55.4 °F - 26.4 °F 33% 30.15 in 10.0 mi Calm Calm - N/A   Clear
7:35 PM 52.5 °F - 25.9 °F 36% 30.15 in 10.0 mi Calm Calm - N/A   Clear
7:55 PM 53.4 °F - 26.2 °F 35% 30.15 in 10.0 mi Calm Calm - N/A   Clear
8:15 PM 52.0 °F - 26.2 °F 37% 30.16 in 10.0 mi South 3.5 mph - N/A   Clear
8:35 PM 49.3 °F - 25.7 °F 40% 30.16 in 10.0 mi South 4.6 mph - N/A   Clear
8:55 PM 47.8 °F - 25.9 °F 42% 30.16 in 10.0 mi South 4.6 mph - N/A   Clear
9:15 PM 44.6 °F 39.7 °F 25.3 °F 47% 30.15 in 10.0 mi SSW 9.2 mph - N/A   Clear
9:35 PM 44.6 °F 40.2 °F 25.5 °F 47% 30.16 in 10.0 mi SSW 8.1 mph - N/A   Clear
9:55 PM 44.6 °F 40.2 °F 26.2 °F 49% 30.16 in 10.0 mi SSW 8.1 mph - N/A   Clear
10:15 PM 43.7 °F 39.1 °F 26.6 °F 51% 30.17 in 10.0 mi SSW 8.1 mph - N/A   Clear
10:35 PM 43.0 °F 38.2 °F 26.8 °F 53% 30.18 in 10.0 mi SSW 8.1 mph - N/A   Clear
10:55 PM 43.3 °F 39.2 °F 27.5 °F 54% 30.19 in 10.0 mi SW 6.9 mph - N/A   Clear
11:15 PM 41.9 °F 36.9 °F 27.3 °F 56% 30.19 in 10.0 mi SW 8.1 mph - N/A   Clear
11:35 PM 41.0 °F 35.8 °F 27.5 °F 59% 30.19 in 10.0 mi SW 8.1 mph - N/A   Clear
11:55 PM 40.5 °F 34.6 °F 27.5 °F 60% 30.19 in 10.0 mi SW 9.2 mph - N/A   Clear